Tracking 31011 objects as of 12-Jul-2025
HD Live streaming from Space Station
objects crossing your sky now

STARLINK-6169

Track STARLINK-6169 now!
10-day predictions
STARLINK-6169 is classified as:


NORAD ID: 56889
Int'l Code: 2023-083P
Perigee: 565.2 km
Apogee: 567.2 km
Inclination: 43.0 °
Period: 95.8 minutes
Semi major axis: 6937 km
RCS: Unknown
Launch date: June 12, 2023
Source: United States (US)
Launch site: AIR FORCE EASTERN TEST RANGE (AFETR)
Your satellite tracking list
Your tracking list is empty




NASA's NSSDC Master Catalog

Two Line Element Set (TLE):
1 56889U 23083P   25193.59264454  .00000083  00000-0  21239-4 0  9993
2 56889  43.0041 306.3943 0001457 269.5570  90.5106 15.02534414115556
Source of the keplerian elements: AFSPC